Location: *
(50.3194°N, 7.1067°E)
Time: 12:53:22
(UTC+00:00)

Cosmos 1437 Rocket - Pass Details

Date: 22 September 2019
Orbit: 506 x 563 km, 81.2° (Epoch: 16 October)

Event Time Altitude Azimuth Distance (km) Brightness Sun altitude
Rises 18:40:22 0° 353° (N) 2,639 6.6 -11.8°
Reaches altitude 10° 18:42:38 10° 2° (N) 1,742 5.5 -12.2°
Maximum altitude 18:46:13 38° 72° (ENE) 787 3.2 -12.7°
Enters shadow 18:48:27 19° 131° (SE) 1,243 4.1 -13.1°
